Torna al catalogo

STARLINK-5964

AttivoComunicazioniVLEO
NORAD 56009·PAYLOAD·🇺🇸 United States

Lanciato Mar 24, 2023 da Cape Canaveral Space Force Station

Loading…

Prossimi Passaggi (prossime 24 ore)

TLE

AggiornatoSource: CelesTrak SupGP

Epoca: Sep 15, 2026, 02:12 UTC

1 56009C 23042Z   26258.09215278 -.00026870  00000+0 -97298-3 0  2588
2 56009  43.0037  73.3883 0001840 272.0934 169.0909 15.27600272    18

Traccia STARLINK-5964 in tempo reale con AllMySat

Download on the App Store